This is the latest recevied weather packets stored in our database for station/object SP4MAZ-13. If no packets are shown the sender has not sent any weather packets the latest 10 day(s).
| Time | Temp. | Humidity | Pressure | Rain* | Wind** | Luminosity | Snow |
|---|---|---|---|---|---|---|---|
| 1777979550 | 18.33° C | 63% | 2147.4 hPa | - | - | - | - |
| 1777979247 | 18.33° C | 66% | 2147.4 hPa | - | - | - | - |
| 1777978943 | 18.33° C | 65% | 2147.4 hPa | - | - | - | - |
| 1777978639 | 17.78° C | 67% | 2147.4 hPa | - | - | - | - |
| 1777978336 | 18.33° C | 62% | 2147.4 hPa | - | - | - | - |
| 1777978032 | 17.78° C | 65% | 2147.4 hPa | - | - | - | - |
| 1777977729 | 18.33° C | 63% | 2147.4 hPa | - | - | - | - |
| 1777977426 | 17.78° C | 67% | 2147.4 hPa | - | - | - | - |
| 1777977122 | 17.78° C | 67% | 2147.4 hPa | - | - | - | - |
| 1777976819 | 18.33° C | 67% | 2147.4 hPa | - | - | - | - |
| 1777976515 | 18.89° C | 63% | 2147.4 hPa | - | - | - | - |
| 1777976212 | 18.89° C | 68% | 2147.4 hPa | - | - | - | - |
| 1777975909 | 18.89° C | 70% | 2147.4 hPa | - | - | - | - |
| 1777975605 | 17.78° C | 70% | 2147.4 hPa | - | - | - | - |
| 1777975302 | 18.89° C | 64% | 2147.4 hPa | - | - | - | - |
| 1777974998 | 21.11° C | 53% | 2147.4 hPa | - | - | - | - |
| 1777974695 | 22.22° C | 50% | 2147.4 hPa | - | - | - | - |
| 1777974392 | 22.78° C | 47% | 2147.4 hPa | - | - | - | - |
| 1777974088 | 22.22° C | 50% | 2147.4 hPa | - | - | - | - |
| 1777973784 | 21.67° C | 50% | 2147.4 hPa | - | - | - | - |
| 1777973483 | 21.11° C | 50% | 2147.4 hPa | - | - | - | - |
| 1777973182 | 20° C | 55% | 2147.4 hPa | - | - | - | - |
| 1777972880 | 20.56° C | 56% | 2147.4 hPa | - | - | - | - |
| 1777972576 | 21.11° C | 49% | 2147.4 hPa | - | - | - | - |
| 1777972273 | 21.11° C | 49% | 2147.4 hPa | - | - | - | - |
* Rain since midnight (hover to see other rain measurements)
** Current wind speed in m/s (hover to see current wind gust speed)